period_start,C,m1,H,J0,J1,J2,J3,J4,J5,JA,JB,JC,JD,JJ,JK,JN,#
2015-09-26 00:01:32,0.05,1.12,0.00,16.12,21.97,25.48,15.14,48.17,1026.18,2059.97,3187.43,3002.91,3194.30,599.81,615.90,14.01,0000 0000 0000 0000 000000
2015-09-26 00:06:33,0.05,1.12,0.00,16.12,21.97,25.46,15.19,48.06,1026.29,2059.99,3186.66,3002.06,3193.36,599.93,615.90,14.07,0000 0000 0000 0000 000000
2015-09-26 00:11:34,0.04,1.12,0.00,16.12,21.97,25.44,15.03,48.03,1026.35,2059.99,3185.97,3001.52,3192.70,599.53,615.59,14.12,0000 0000 0000 0000 000000
2015-09-26 00:16:35,0.02,1.12,0.00,16.12,21.97,25.47,15.10,48.02,1026.37,2059.98,3185.16,3001.02,3192.03,599.82,615.80,14.17,0000 0000 0000 0000 000000
2015-09-26 00:21:37,0.02,1.12,0.00,16.12,21.97,25.46,15.11,48.04,1026.37,2059.98,3184.76,3000.87,3191.42,599.99,616.05,14.22,0000 0000 0000 0000 000000
2015-09-26 00:26:38,0.03,1.13,0.00,16.11,21.97,25.45,15.12,48.12,1026.35,2059.99,3184.04,3000.13,3190.98,600.37,616.57,14.27,0000 0000 0000 0000 000000
2015-09-26 00:31:39,0.03,1.13,0.00,16.11,21.97,25.43,15.12,48.03,1026.24,2059.99,3183.57,2999.95,3190.21,600.22,616.25,14.32,0000 0000 0000 0000 000000
2015-09-26 00:36:41,0.04,1.13,0.00,16.11,21.96,25.42,15.16,48.32,1026.26,2059.98,3182.90,2999.14,3189.60,600.01,616.07,14.37,0000 0000 0000 0000 000000
2015-09-26 00:41:42,0.02,1.13,0.00,16.11,21.95,25.41,15.11,48.13,1026.16,2059.99,3182.16,2998.93,3188.95,599.70,615.71,14.42,0000 0000 0000 0000 000000
2015-09-26 00:46:43,0.05,1.13,0.00,16.09,21.94,25.40,15.12,48.32,1026.26,2059.99,3181.40,2998.09,3188.09,600.13,616.19,14.47,0000 0000 0000 0000 000000
2015-09-26 00:51:45,0.03,1.14,0.00,16.09,21.94,25.39,15.07,48.16,1026.37,2059.99,3180.82,2997.79,3187.60,599.87,615.97,14.52,0000 0000 0000 0000 000000
2015-09-26 00:56:46,0.07,1.14,0.00,16.09,21.94,25.40,15.06,47.98,1026.38,2059.99,3179.76,2996.76,3186.54,599.67,615.77,14.57,0000 0000 0000 0000 000000
2015-09-26 01:01:47,0.04,1.14,0.00,16.09,21.94,25.34,15.15,48.27,1026.37,2059.98,3178.93,2996.01,3185.31,599.85,615.94,14.62,0000 0000 0000 0000 000000
2015-09-26 01:06:49,0.03,1.14,0.00,16.09,21.94,25.44,15.17,48.08,1026.38,2059.99,3178.14,2995.60,3184.98,600.10,616.28,14.67,0000 0000 0000 0000 000000
2015-09-26 01:11:50,0.02,1.15,0.00,16.09,21.94,25.40,15.08,48.02,1026.38,2059.99,3177.95,2995.02,3184.26,599.92,616.22,14.72,0000 0000 0000 0000 000000
2015-09-26 01:16:52,0.01,1.15,0.00,16.10,21.93,25.35,15.14,48.23,1026.38,2059.99,3177.39,2994.99,3184.02,600.12,616.24,14.77,0000 0000 0000 0000 000000
2015-09-26 01:21:53,0.01,1.15,0.00,16.11,21.93,25.39,15.09,48.06,1026.38,2059.99,3176.99,2994.92,3183.74,600.15,616.24,14.82,0000 0000 0000 0000 000000
2015-09-26 01:26:54,0.04,1.15,0.00,16.13,21.92,25.36,15.17,48.27,1026.38,2059.99,3176.42,2994.24,3183.04,600.10,616.18,14.87,0000 0000 0000 0000 000000
2015-09-26 01:31:55,0.01,1.15,0.00,16.14,21.92,25.39,15.09,48.17,1026.38,2059.99,3176.00,2994.00,3182.78,599.83,615.83,14.92,0000 0000 0000 0000 000000
2015-09-26 01:36:57,0.05,1.15,0.00,16.14,21.92,25.43,15.20,48.23,1026.38,2059.99,3175.22,2993.42,3181.99,599.89,615.91,14.97,0000 0000 0000 0000 000000
2015-09-26 01:41:58,0.07,1.15,0.00,16.14,21.92,25.40,15.09,48.26,1026.38,2059.99,3174.18,2992.49,3180.74,599.61,615.68,15.02,0000 0000 0000 0000 000000
2015-09-26 01:46:59,0.12,1.16,0.00,16.14,21.92,25.40,15.08,48.22,1026.39,2059.99,3172.44,2990.69,3178.77,599.75,615.95,15.07,0000 0000 0000 0000 000000
2015-09-26 01:52:00,0.06,1.16,0.00,16.17,21.92,25.36,15.06,48.18,1026.42,2059.99,3171.14,2989.49,3177.33,599.79,615.60,15.12,0000 0000 0000 0000 000000
2015-09-26 01:57:02,0.01,1.17,0.00,16.17,21.92,25.42,15.12,48.23,1026.58,2059.99,3170.72,2989.01,3176.88,600.07,616.05,15.17,0000 0000 0000 0000 000000
2015-09-26 02:02:03,0.03,1.17,0.00,16.19,21.92,25.43,15.17,48.18,1026.69,2059.99,3170.03,2988.63,3176.12,600.05,616.20,15.22,0000 0000 0000 0000 000000
2015-09-26 02:07:05,0.03,1.17,0.00,16.21,21.92,25.41,15.20,48.34,1026.84,2059.99,3169.52,2988.04,3175.63,600.10,616.41,15.27,0000 0000 0000 0000 000000
2015-09-26 02:12:06,0.01,1.17,0.00,16.23,21.92,25.43,15.08,48.23,1026.85,2059.99,3168.97,2987.73,3175.00,599.96,615.94,15.32,0000 0000 0000 0000 000000
2015-09-26 02:17:07,0.04,1.17,0.00,16.24,21.93,25.44,15.09,48.19,1026.86,2059.99,3168.22,2987.11,3174.56,599.76,615.86,15.37,0000 0000 0000 0000 000000
2015-09-26 02:22:08,0.00,1.17,0.00,16.25,21.94,25.47,15.07,48.09,1026.87,2059.98,3167.99,2987.00,3174.02,599.71,615.87,15.42,0000 0000 0000 0000 000000
2015-09-26 02:27:09,0.03,1.17,0.00,16.28,21.94,25.49,15.11,48.13,1026.88,2059.99,3167.39,2986.91,3173.74,600.06,616.18,15.47,0000 0000 0000 0000 000000
2015-09-26 02:32:10,0.04,1.18,0.00,16.29,21.94,25.48,15.15,48.18,1026.87,2059.99,3166.86,2986.20,3173.05,599.85,615.81,15.52,0000 0000 0000 0000 000000
2015-09-26 02:37:12,0.03,1.18,0.00,16.32,21.95,25.48,15.15,48.26,1026.87,2059.99,3166.06,2985.95,3172.38,600.33,616.13,15.57,0000 0000 0000 0000 000000
2015-09-26 02:42:13,0.03,1.18,0.00,16.34,21.96,25.53,15.12,47.97,1026.86,2059.99,3165.55,2985.29,3171.99,599.92,615.87,15.62,0000 0000 0000 0000 000000
2015-09-26 02:47:14,0.02,1.18,0.00,16.34,21.97,25.51,15.19,48.22,1026.82,2059.98,3165.02,2985.01,3171.41,600.28,616.13,15.67,0000 0000 0000 0000 000000
2015-09-26 02:52:15,0.03,1.18,0.00,16.37,21.97,25.52,15.23,48.34,1026.87,2059.98,3164.47,2984.78,3170.97,600.38,616.27,15.72,0000 0000 0000 0000 000000
2015-09-26 02:57:16,0.03,1.18,0.00,16.39,21.99,25.50,15.07,48.13,1026.87,2059.98,3163.97,2984.08,3170.32,600.11,615.99,15.77,0000 0000 0000 0000 000000
2015-09-26 03:02:18,0.01,1.19,0.00,16.42,21.99,25.54,15.10,47.88,1026.89,2059.97,3163.26,2984.00,3170.00,599.76,615.52,15.82,0000 0000 0000 0000 000000
2015-09-26 03:07:19,0.00,1.19,0.00,16.43,22.00,25.58,15.12,48.02,1026.91,2059.96,3163.01,2983.99,3169.86,599.88,615.59,15.87,0000 0000 0000 0000 000000
2015-09-26 03:12:20,0.01,1.19,0.00,16.44,22.02,25.59,15.06,48.00,1026.97,2059.86,3162.76,2983.96,3169.18,599.84,615.61,15.92,0000 0000 0000 0000 000000
2015-09-26 03:17:21,0.02,1.19,0.00,16.47,22.02,25.60,15.20,48.16,1026.98,2059.84,3162.09,2983.66,3169.01,600.13,615.85,15.97,0000 0000 0000 0000 000000
2015-09-26 03:22:23,-0.03,1.19,0.00,16.48,22.04,25.58,14.99,48.04,1027.10,2059.42,3161.97,2983.08,3168.84,599.71,615.40,16.02,0000 0000 0000 0000 000000
2015-09-26 03:27:24,0.01,1.19,0.00,16.49,22.04,25.62,15.20,47.97,1027.24,2059.13,3161.34,2983.00,3168.11,600.32,616.02,16.07,0000 0000 0000 0000 000000
2015-09-26 03:32:25,-0.00,1.19,0.00,16.51,22.06,25.63,15.15,48.15,1027.31,2059.02,3161.01,2982.98,3168.00,600.15,615.90,16.12,0000 0000 0000 0000 000000
2015-09-26 03:37:27,0.02,1.19,0.00,16.52,22.07,25.65,15.06,48.09,1027.33,2059.05,3160.76,2982.85,3167.92,600.31,616.17,16.17,0000 0000 0000 0000 000000
2015-09-26 03:42:28,0.04,1.19,0.00,16.53,22.08,25.65,15.16,48.19,1027.30,2059.02,3160.05,2982.16,3167.19,600.11,615.79,16.22,0000 0000 0000 0000 000000
2015-09-26 03:47:29,0.00,1.19,0.00,16.54,22.09,25.68,15.08,48.04,1027.32,2059.00,3159.89,2982.01,3167.00,599.87,615.55,16.27,0000 0000 0000 0000 000000
2015-09-26 03:52:31,0.01,1.19,0.00,16.56,22.10,25.70,15.20,48.12,1027.31,2059.00,3159.25,2981.99,3166.84,600.05,615.64,16.32,0000 0000 0000 0000 000000
2015-09-26 03:57:32,0.01,1.19,0.00,16.57,22.12,25.71,15.18,48.23,1027.21,2059.00,3158.98,2981.97,3166.11,600.33,615.95,16.37,0000 0000 0000 0000 000000
2015-09-26 04:02:33,0.04,1.19,0.00,16.58,22.12,25.70,15.14,48.23,1027.05,2058.99,3158.31,2981.38,3165.99,600.16,615.67,16.42,0000 0000 0000 0000 000000
2015-09-26 04:07:34,0.00,1.19,0.00,16.59,22.14,25.71,15.13,48.23,1026.96,2058.99,3158.01,2981.10,3165.96,600.15,615.44,16.48,0000 0000 0000 0000 000000
2015-09-26 04:12:35,0.02,1.19,0.00,16.59,22.15,25.73,15.10,48.05,1026.95,2058.98,3157.73,2981.02,3165.33,600.02,615.39,16.53,0000 0000 0000 0000 000000
2015-09-26 04:17:37,0.01,1.20,0.00,16.59,22.17,25.76,15.12,48.23,1026.98,2058.99,3157.05,2981.00,3165.00,600.32,615.74,16.58,0000 0000 0000 0000 000000
2015-09-26 04:22:38,0.00,1.20,0.00,16.61,22.17,25.77,15.12,48.06,1027.15,2058.98,3156.96,2980.97,3164.94,599.97,615.47,16.63,0000 0000 0000 0000 000000
2015-09-26 04:27:39,0.03,1.20,0.00,16.62,22.19,25.77,15.20,48.13,1027.32,2058.98,3156.29,2980.64,3164.27,600.42,615.95,16.68,0000 0000 0000 0000 000000
2015-09-26 04:32:40,0.01,1.20,0.00,16.63,22.19,25.79,15.07,48.04,1027.36,2058.93,3156.00,2980.09,3164.01,599.68,615.31,16.73,0000 0000 0000 0000 000000
2015-09-26 04:37:41,-0.01,1.20,0.00,16.64,22.21,25.79,15.15,48.23,1027.36,2058.78,3155.58,2980.00,3163.96,600.22,615.68,16.78,0000 0000 0000 0000 000000
2015-09-26 04:42:43,0.01,1.20,0.00,16.64,22.22,25.83,15.20,48.31,1027.36,2058.70,3155.03,2980.00,3163.53,599.87,615.38,16.83,0000 0000 0000 0000 000000
2015-09-26 04:47:44,-0.02,1.20,0.00,16.67,22.23,25.83,15.11,48.23,1027.35,2058.50,3154.97,2979.98,3163.04,600.05,615.62,16.88,0000 0000 0000 0000 000000
2015-09-26 04:52:46,-0.00,1.20,0.00,16.67,22.24,25.83,15.17,48.15,1027.36,2058.22,3154.46,2979.81,3163.00,600.17,615.69,16.93,0000 0000 0000 0000 000000
2015-09-26 04:57:47,0.01,1.20,0.00,16.69,22.25,25.84,15.09,48.11,1027.36,2058.10,3154.01,2979.38,3162.96,600.32,615.72,16.98,0000 0000 0000 0000 000000
2015-09-26 05:02:48,0.01,1.20,0.00,16.69,22.27,25.87,15.14,48.07,1027.32,2058.06,3153.96,2979.11,3162.55,600.09,615.46,17.03,0000 0000 0000 0000 000000
2015-09-26 05:07:49,0.01,1.20,0.00,16.69,22.28,25.85,15.11,48.19,1027.29,2058.05,3153.52,2979.03,3162.08,600.06,615.44,17.08,0000 0000 0000 0000 000000
2015-09-26 05:12:51,0.00,1.20,0.00,16.69,22.29,25.89,15.11,48.14,1027.36,2058.03,3153.01,2979.00,3162.00,599.94,615.36,17.13,0000 0000 0000 0000 000000
2015-09-26 05:17:52,0.00,1.20,0.00,16.69,22.30,25.91,15.14,48.19,1027.36,2058.03,3152.98,2979.00,3161.99,600.26,615.71,17.18,0000 0000 0000 0000 000000
2015-09-26 05:22:53,0.01,1.20,0.00,16.71,22.32,25.92,15.12,48.23,1027.37,2058.02,3152.50,2978.99,3161.85,600.13,615.55,17.23,0000 0000 0000 0000 000000
2015-09-26 05:27:55,0.01,1.20,0.00,16.72,22.32,25.92,15.07,48.03,1027.38,2058.01,3152.04,2978.98,3161.31,599.71,615.14,17.28,0000 0000 0000 0000 000000
2015-09-26 05:32:56,0.00,1.20,0.00,16.73,22.33,25.91,15.11,48.09,1027.39,2058.01,3152.00,2978.93,3161.04,600.12,615.60,17.33,0000 0000 0000 0000 000000
2015-09-26 05:37:57,0.02,1.20,0.00,16.72,22.34,25.95,15.18,48.13,1027.39,2058.00,3151.61,2978.55,3161.00,600.26,615.64,17.38,0000 0000 0000 0000 000000
2015-09-26 05:42:58,0.02,1.20,0.00,16.73,22.35,25.94,15.11,48.02,1027.38,2058.00,3151.04,2978.09,3160.93,599.74,615.11,17.43,0000 0000 0000 0000 000000
2015-09-26 05:47:59,0.01,1.20,0.00,16.74,22.37,25.97,15.11,48.09,1027.37,2058.00,3150.98,2978.01,3160.30,599.84,615.13,17.48,0000 0000 0000 0000 000000
2015-09-26 05:53:01,0.01,1.21,0.00,16.74,22.37,25.97,15.08,47.99,1027.37,2058.00,3150.41,2977.99,3160.03,599.89,615.25,17.53,0000 0000 0000 0000 000000
2015-09-26 05:58:02,0.00,1.21,0.00,16.74,22.38,25.97,15.05,47.93,1027.38,2058.00,3150.01,2977.96,3160.00,599.72,615.06,17.58,0000 0000 0000 0000 000000
2015-09-26 06:03:03,0.01,1.21,0.00,16.74,22.39,25.99,15.12,47.98,1027.37,2058.00,3149.91,2977.70,3159.89,600.14,615.45,17.63,0000 0000 0000 0000 000000
2015-09-26 06:08:04,0.03,1.21,0.00,16.74,22.39,26.01,15.11,47.98,1027.36,2058.00,3149.32,2977.32,3159.36,599.70,615.03,17.68,0000 0000 0000 0000 000000
2015-09-26 06:13:05,0.01,1.21,0.00,16.76,22.40,25.99,15.11,48.12,1027.36,2057.99,3149.01,2977.02,3159.02,600.35,615.64,17.73,0000 0000 0000 0000 000000
2015-09-26 06:18:07,0.01,1.21,0.00,16.77,22.42,26.04,15.13,48.00,1027.36,2057.97,3148.77,2977.00,3158.99,599.90,615.18,17.78,0000 0000 0000 0000 000000
2015-09-26 06:23:08,0.02,1.21,0.00,16.77,22.42,26.04,15.17,48.09,1027.36,2057.98,3148.09,2976.96,3158.34,600.31,615.56,17.83,0000 0000 0000 0000 000000
2015-09-26 06:28:09,0.02,1.21,0.00,16.78,22.43,26.04,15.14,48.22,1027.31,2057.97,3147.91,2976.33,3158.01,600.14,615.30,17.88,0000 0000 0000 0000 000000
2015-09-26 06:33:10,0.03,1.21,0.00,16.77,22.44,26.03,15.09,47.94,1027.36,2057.94,3147.08,2976.00,3157.39,599.86,615.25,17.93,0000 0000 0000 0000 000000
2015-09-26 06:38:12,0.01,1.21,0.00,16.77,22.44,26.02,15.10,47.94,1027.36,2057.94,3146.95,2975.91,3157.00,599.73,614.96,17.98,0000 0000 0000 0000 000000
2015-09-26 06:43:13,0.03,1.22,0.00,16.79,22.45,26.08,15.05,48.06,1027.36,2057.95,3146.24,2975.23,3156.91,599.65,614.90,18.03,0000 0000 0000 0000 000000
2015-09-26 06:48:14,0.01,1.22,0.00,16.79,22.46,26.03,15.07,47.88,1027.37,2057.93,3145.98,2975.01,3156.16,600.20,615.30,18.08,0000 0000 0000 0000 000000
2015-09-26 06:53:16,0.01,1.22,0.00,16.79,22.47,26.08,15.19,48.12,1027.38,2057.93,3145.80,2974.99,3156.00,600.48,615.71,18.13,0000 0000 0000 0000 000000
2015-09-26 06:58:17,0.00,1.22,0.00,16.79,22.47,26.08,15.10,48.01,1027.42,2057.87,3145.16,2974.95,3156.00,599.91,615.18,18.18,0000 0000 0000 0000 000000
2015-09-26 07:03:18,-0.02,1.22,0.00,16.79,22.47,26.06,15.08,47.98,1027.42,2057.61,3145.00,2974.85,3155.91,599.82,615.03,18.23,0000 0000 0000 0000 000000
2015-09-26 07:08:19,0.02,1.22,0.00,16.79,22.48,26.08,15.11,48.06,1027.47,2057.60,3145.00,2974.69,3155.51,600.29,615.59,18.28,0000 0000 0000 0000 000000
2015-09-26 07:13:21,0.00,1.22,0.00,16.79,22.49,26.06,15.05,47.96,1027.62,2057.40,3144.70,2974.29,3155.08,599.72,615.30,18.33,0000 0000 0000 0000 000000
2015-09-26 07:18:22,-0.01,1.22,0.00,16.79,22.49,26.09,15.24,48.21,1027.70,2057.19,3144.05,2974.04,3155.00,600.30,615.72,18.38,0000 0000 0000 0000 000000
2015-09-26 07:23:23,-0.00,1.22,0.00,16.80,22.49,26.12,15.07,47.94,1027.75,2057.22,3144.00,2974.03,3155.00,599.84,615.32,18.43,0000 0000 0000 0000 000000
2015-09-26 07:28:25,0.01,1.22,0.00,16.81,22.49,26.12,15.09,47.92,1027.81,2057.13,3143.76,2974.00,3154.94,599.64,615.15,18.48,0000 0000 0000 0000 000000
2015-09-26 07:33:27,0.02,1.22,0.00,16.81,22.50,26.13,15.13,47.96,1027.84,2057.17,3143.03,2974.00,3154.47,599.88,615.28,18.53,0000 0000 0000 0000 000000
2015-09-26 07:38:28,0.00,1.22,0.00,16.81,22.51,26.11,15.15,47.86,1027.85,2057.08,3142.92,2973.96,3154.02,600.01,615.50,18.58,0000 0000 0000 0000 000000
2015-09-26 07:43:29,0.01,1.22,0.00,16.82,22.52,26.14,15.14,48.00,1027.84,2057.05,3142.55,2973.92,3154.01,599.97,615.39,18.63,0000 0000 0000 0000 000000
2015-09-26 07:48:30,0.01,1.22,0.00,16.82,22.52,26.11,15.05,47.76,1027.85,2057.05,3142.04,2973.80,3153.99,599.99,615.46,18.68,0000 0000 0000 0000 000000
2015-09-26 07:53:32,0.39,1.23,0.00,16.82,22.52,26.13,15.18,47.93,1027.85,2057.02,3134.42,2969.96,3149.88,600.47,615.86,18.73,0000 0000 0000 0000 000000
2015-09-26 07:58:33,0.02,1.24,0.00,16.82,22.52,26.10,15.17,47.99,1027.85,2057.01,3132.02,2968.58,3148.19,600.50,616.01,18.78,0000 0000 0000 0000 000000
2015-09-26 08:03:34,0.00,1.24,0.00,16.82,22.53,26.15,15.14,47.74,1027.85,2057.02,3132.00,2968.55,3148.10,599.79,615.28,18.83,0000 0000 0000 0000 000000
2015-09-26 08:08:35,0.01,1.24,0.00,16.82,22.54,26.14,15.07,47.88,1027.84,2057.02,3131.85,2968.24,3148.02,599.74,615.16,18.88,0000 0000 0000 0000 000000
2015-09-26 08:13:37,0.01,1.24,0.00,16.82,22.54,26.13,15.12,47.77,1027.84,2057.01,3131.20,2968.04,3148.00,599.81,615.26,18.93,0000 0000 0000 0000 000000
2015-09-26 08:18:38,0.00,1.24,0.00,16.83,22.54,26.12,15.02,47.72,1027.83,2057.01,3131.01,2968.01,3147.99,600.22,615.73,18.98,0000 0000 0000 0000 000000
2015-09-26 08:23:40,0.00,1.24,0.00,16.82,22.54,26.15,15.04,47.92,1027.81,2057.00,3130.96,2968.01,3147.90,599.58,615.07,19.03,0000 0000 0000 0000 000000
2015-09-26 08:28:41,0.07,1.24,0.00,16.82,22.55,26.20,15.10,47.89,1027.66,2057.00,3129.60,2967.53,3146.95,600.13,615.38,19.08,0000 0000 0000 0000 000000
2015-09-26 08:33:42,0.03,1.25,0.00,16.84,22.56,26.20,15.10,47.89,1027.52,2057.00,3128.24,2966.96,3146.07,599.94,615.16,19.13,0000 0000 0000 0000 000000
2015-09-26 08:38:43,0.03,1.25,0.00,16.84,22.57,26.16,15.07,47.93,1027.45,2057.00,3127.77,2966.43,3145.98,599.77,615.03,19.18,0000 0000 0000 0000 000000
2015-09-26 08:43:44,0.01,1.25,0.00,16.84,22.57,26.17,15.02,47.73,1027.40,2057.00,3127.17,2966.09,3145.86,599.79,614.85,19.23,0000 0000 0000 0000 000000
2015-09-26 08:48:46,0.01,1.25,0.00,16.84,22.57,26.18,15.03,47.87,1027.37,2057.00,3126.99,2966.01,3145.20,599.86,615.04,19.28,0000 0000 0000 0000 000000
2015-09-26 08:53:47,0.01,1.25,0.00,16.84,22.57,26.15,15.12,47.94,1027.38,2057.00,3126.37,2965.97,3145.00,600.15,615.16,19.33,0000 0000 0000 0000 000000
2015-09-26 08:58:48,0.03,1.25,0.00,16.85,22.58,26.18,15.18,47.96,1027.37,2057.00,3125.88,2965.41,3144.62,600.11,615.11,19.38,0000 0000 0000 0000 000000
2015-09-26 09:03:49,0.02,1.26,0.00,16.84,22.59,26.21,15.12,47.97,1027.36,2057.00,3125.17,2965.04,3144.06,599.73,614.76,19.44,0000 0000 0000 0000 000000
2015-09-26 09:08:51,0.01,1.26,0.00,16.84,22.59,26.20,14.98,47.68,1027.36,2057.00,3124.84,2964.99,3143.94,599.45,614.63,19.49,0000 0000 0000 0000 000000
2015-09-26 09:13:52,0.06,1.26,0.00,16.84,22.59,26.22,15.04,47.88,1027.36,2057.00,3123.84,2964.28,3143.12,599.86,614.94,19.54,0000 0000 0000 0000 000000
2015-09-26 09:18:53,0.03,1.26,0.00,16.83,22.59,26.18,15.07,48.26,1027.35,2056.99,3122.79,2963.96,3142.66,599.55,614.73,19.59,0000 0000 0000 0000 000000
2015-09-26 09:23:54,0.03,1.26,0.00,16.82,22.59,26.20,15.11,47.82,1027.34,2056.98,3122.02,2963.26,3142.01,599.93,615.12,19.64,0000 0000 0000 0000 000000
2015-09-26 09:28:56,0.00,1.26,0.00,16.82,22.59,26.17,15.05,47.85,1027.35,2056.99,3121.86,2963.02,3141.97,599.84,615.02,19.69,0000 0000 0000 0000 000000
2015-09-26 09:33:57,0.02,1.26,0.00,16.82,22.59,26.24,15.14,47.79,1027.35,2056.99,3121.18,2963.00,3141.75,600.50,615.72,19.74,0000 0000 0000 0000 000000
2015-09-26 09:38:58,0.01,1.26,0.00,16.83,22.59,26.20,15.18,47.91,1027.31,2056.98,3121.02,2963.00,3141.34,600.02,615.14,19.79,0000 0000 0000 0000 000000
2015-09-26 09:43:59,0.00,1.26,0.00,16.84,22.59,26.21,15.07,47.77,1027.21,2056.98,3121.00,2963.00,3141.04,599.92,614.98,19.84,0000 0000 0000 0000 000000
2015-09-26 09:49:00,0.00,1.26,0.00,16.83,22.59,26.21,15.13,47.93,1026.93,2056.99,3120.97,2962.98,3141.00,600.21,615.11,19.89,0000 0000 0000 0000 000000
2015-09-26 09:54:01,0.00,1.26,0.00,16.83,22.59,26.19,15.12,47.88,1026.88,2056.99,3120.93,2962.98,3141.00,600.27,615.17,19.94,0000 0000 0000 0000 000000
2015-09-26 09:59:03,0.01,1.27,0.00,16.84,22.59,26.21,15.11,47.92,1026.87,2056.99,3120.35,2962.95,3140.99,600.07,614.86,19.99,0000 0000 0000 0000 000000
2015-09-26 10:04:04,0.00,1.27,0.00,16.83,22.59,26.20,15.11,48.07,1026.85,2056.99,3120.02,2962.95,3140.98,600.03,614.88,20.04,0000 0000 0000 0000 000000
2015-09-26 10:09:06,0.00,1.27,0.00,16.82,22.59,26.21,15.15,48.02,1026.72,2056.99,3120.00,2962.81,3140.94,600.12,614.96,20.09,0000 0000 0000 0000 000000
2015-09-26 10:14:07,0.00,1.27,0.00,16.82,22.59,26.20,15.12,47.97,1026.49,2056.99,3120.00,2962.79,3140.87,600.45,615.06,20.14,0000 0000 0000 0000 000000
2015-09-26 10:19:08,0.01,1.27,0.00,16.82,22.59,26.20,15.10,47.98,1026.40,2056.99,3119.98,2962.62,3140.45,600.42,615.10,20.19,0000 0000 0000 0000 000000
2015-09-26 10:24:09,0.01,1.27,0.00,16.82,22.59,26.21,15.11,47.80,1026.38,2056.98,3119.72,2962.36,3140.15,599.80,614.39,20.24,0000 0000 0000 0000 000000
2015-09-26 10:29:11,0.01,1.27,0.00,16.82,22.59,26.18,15.11,47.88,1026.38,2056.99,3119.25,2962.30,3140.05,599.95,614.54,20.29,0000 0000 0000 0000 000000
2015-09-26 10:34:12,0.00,1.27,0.00,16.82,22.59,26.18,15.11,48.04,1026.38,2056.99,3119.02,2962.21,3140.01,600.07,614.66,20.34,0000 0000 0000 0000 000000
2015-09-26 10:39:14,-0.00,1.27,0.00,16.80,22.59,26.17,15.15,47.99,1026.38,2056.99,3119.00,2962.16,3140.00,599.97,614.62,20.39,0000 0000 0000 0000 000000
2015-09-26 10:44:15,0.00,1.27,0.00,16.79,22.59,26.19,15.13,47.97,1026.32,2056.99,3119.00,2962.10,3140.00,599.92,614.41,20.44,0000 0000 0000 0000 000000
2015-09-26 10:49:17,0.00,1.27,0.00,16.79,22.59,26.19,15.05,47.84,1026.18,2056.98,3118.94,2962.04,3140.00,600.05,614.65,20.49,0000 0000 0000 0000 000000
2015-09-26 10:54:18,0.01,1.27,0.00,16.79,22.59,26.16,15.06,47.94,1025.99,2056.99,3118.25,2962.02,3139.97,599.70,614.10,20.54,0000 0000 0000 0000 000000
2015-09-26 10:59:19,0.00,1.27,0.00,16.78,22.59,26.18,15.06,47.93,1025.92,2056.98,3118.05,2962.01,3139.81,599.83,614.33,20.59,0000 0000 0000 0000 000000
2015-09-26 11:04:21,0.01,1.27,0.00,16.77,22.59,26.17,15.10,47.71,1025.90,2056.97,3118.00,2962.00,3139.21,599.99,614.54,20.64,0000 0000 0000 0000 000000
2015-09-26 11:09:22,0.00,1.27,0.00,16.77,22.59,26.17,15.01,47.92,1025.90,2056.97,3117.99,2962.00,3139.09,600.03,614.44,20.69,0000 0000 0000 0000 000000
2015-09-26 11:14:23,-0.00,1.27,0.00,16.77,22.59,26.17,15.14,47.82,1025.88,2056.98,3117.93,2962.00,3139.04,600.40,614.87,20.74,0000 0000 0000 0000 000000
2015-09-26 11:19:24,0.01,1.27,0.00,16.77,22.59,26.17,15.14,47.77,1025.79,2056.99,3117.19,2962.00,3139.01,600.07,614.36,20.79,0000 0000 0000 0000 000000
2015-09-26 11:24:26,0.00,1.27,0.00,16.77,22.58,26.16,15.07,47.83,1025.46,2056.98,3117.03,2961.99,3139.00,600.10,614.33,20.84,0000 0000 0000 0000 000000
2015-09-26 11:29:27,0.00,1.27,0.00,16.76,22.57,26.17,15.05,47.95,1025.41,2056.98,3117.00,2961.98,3139.00,599.59,613.79,20.89,0000 0000 0000 0000 000000
2015-09-26 11:34:29,0.00,1.27,0.00,16.74,22.57,26.15,15.04,47.78,1025.41,2056.99,3116.99,2961.98,3139.00,600.33,614.48,20.94,0000 0000 0000 0000 000000
2015-09-26 11:39:30,0.01,1.27,0.00,16.74,22.57,26.15,15.05,47.88,1025.18,2056.99,3116.66,2961.97,3138.96,599.75,613.67,20.99,0000 0000 0000 0000 000000
2015-09-26 11:44:31,0.01,1.27,0.00,16.74,22.57,26.15,15.06,47.85,1024.95,2056.98,3116.08,2961.94,3138.78,600.14,613.95,21.04,0000 0000 0000 0000 000000
2015-09-26 11:49:33,0.00,1.27,0.00,16.72,22.57,26.12,15.08,48.06,1024.92,2056.99,3116.02,2961.97,3138.67,599.51,613.47,21.09,0000 0000 0000 0000 000000
2015-09-26 11:54:34,0.01,1.27,0.00,16.72,22.56,26.11,15.09,47.92,1024.92,2056.99,3115.99,2961.95,3138.23,599.93,613.79,21.14,0000 0000 0000 0000 000000
2015-09-26 11:59:35,0.01,1.27,0.00,16.69,22.55,26.13,15.03,48.09,1024.92,2056.99,3115.95,2961.66,3138.03,599.75,613.72,21.19,0000 0000 0000 0000 000000
2015-09-26 12:04:36,0.01,1.27,0.00,16.69,22.54,26.12,15.04,47.96,1024.93,2056.99,3115.38,2961.50,3138.00,600.33,614.28,21.24,0000 0000 0000 0000 000000
2015-09-26 12:09:38,0.01,1.27,0.00,16.69,22.54,26.09,15.11,47.94,1024.94,2056.99,3115.04,2961.25,3138.00,600.22,614.22,21.29,0000 0000 0000 0000 000000
2015-09-26 12:14:39,0.00,1.28,0.00,16.67,22.54,26.09,15.12,47.90,1024.94,2056.99,3114.96,2961.04,3137.97,600.13,614.22,21.34,0000 0000 0000 0000 000000
2015-09-26 12:19:40,0.02,1.28,0.00,16.67,22.54,26.08,15.09,47.85,1024.92,2056.99,3114.42,2961.01,3137.60,599.76,613.79,21.39,0000 0000 0000 0000 000000
2015-09-26 12:24:42,0.01,1.28,0.00,16.64,22.53,26.06,15.08,47.93,1024.91,2057.00,3114.03,2961.00,3137.27,599.97,614.04,21.44,0000 0000 0000 0000 000000
2015-09-26 12:29:43,0.00,1.28,0.00,16.64,22.52,26.07,15.05,47.84,1024.69,2057.00,3113.98,2961.00,3137.01,599.78,613.73,21.49,0000 0000 0000 0000 000000
2015-09-26 12:34:44,0.01,1.28,0.00,16.64,22.52,26.04,15.07,47.91,1024.46,2057.01,3113.55,2961.00,3137.00,599.84,613.77,21.54,0000 0000 0000 0000 000000
2015-09-26 12:39:45,0.00,1.28,0.00,16.64,22.52,26.07,15.09,47.82,1024.43,2057.01,3113.02,2960.96,3136.96,600.22,613.92,21.59,0000 0000 0000 0000 000000
2015-09-26 12:44:46,0.02,1.28,0.00,16.64,22.52,26.03,15.05,47.70,1024.43,2057.02,3112.98,2960.75,3136.60,599.82,613.50,21.64,0000 0000 0000 0000 000000
2015-09-26 12:49:48,0.03,1.28,0.00,16.63,22.51,26.03,15.10,47.86,1024.42,2057.01,3112.24,2960.09,3136.03,600.01,613.90,21.69,0000 0000 0000 0000 000000
2015-09-26 12:54:49,0.00,1.28,0.00,16.64,22.50,26.03,15.05,47.77,1024.32,2057.03,3112.00,2960.03,3136.00,599.86,613.76,21.74,0000 0000 0000 0000 000000